| time (UTC) | temp F | wind direction | speed knots | gust knots | rain 1hr in | rain 24hr in | rain mn in | humidity % | barometer mb |
| 20260509014557 | 61 | 0 | 0.0 | 0.9 | 0.00 | 0.00 | 0.00 | 46 | 1011.5 |
| 20260509013100 | 62 | 0 | 0.0 | 0.9 | 0.00 | 0.00 | 0.00 | 44 | 1011.5 |
| 20260509011601 | 62 | 0 | 0.0 | 0.9 | 0.00 | 0.00 | 0.00 | 42 | 1011.4 |
| 20260509010054 | 63 | 0 | 0.0 | 0.9 | 0.00 | 0.00 | 0.00 | 41 | 1011.4 |
| 20260509004600 | 63 | 0 | 0.0 | 0.9 | 0.00 | 0.00 | 0.00 | 41 | 1011.4 |
| 20260509003059 | 64 | 360 | 0.0 | 1.7 | 0.00 | 0.00 | 0.00 | 39 | 1011.4 |
| 20260509001557 | 64 | 0 | 0.0 | 0.9 | 0.00 | 0.00 | 0.00 | 39 | 1011.2 |
| 20260509000107 | 65 | 0 | 0.0 | 3.5 | 0.00 | 0.00 | 0.00 | 39 | 1011.3 |
| 20260508234557 | 65 | 0 | 0.0 | 2.6 | 0.00 | 0.00 | 0.00 | 38 | 1011.0 |
| 20260508233057 | 66 | 360 | 0.0 | 3.5 | 0.00 | 0.00 | 0.00 | 39 | 1011.1 |
| 20260508231555 | 67 | 360 | 0.0 | 1.7 | 0.00 | 0.00 | 0.00 | 40 | 1011.2 |
| 20260508224647 | 68 | 0 | 0.0 | 4.3 | 0.00 | 0.00 | 0.00 | 37 | 1011.0 |
| 20260508223056 | 68 | 57 | 1.7 | 7.0 | 0.00 | 0.00 | 0.00 | 38 | 1011.0 |
| 20260508221557 | 68 | 115 | 0.9 | 6.1 | 0.00 | 0.00 | 0.00 | 38 | 1011.0 |
| 20260508220058 | 68 | 97 | 0.0 | 4.3 | 0.00 | 0.00 | 0.00 | 37 | 1011.2 |
| 20260508214600 | 68 | 55 | 0.9 | 4.3 | 0.00 | 0.00 | 0.00 | 41 | 1011.2 |
| 20260508213056 | 69 | 196 | 0.9 | 5.2 | 0.00 | 0.00 | 0.00 | 37 | 1011.1 |
| 20260508211556 | 69 | 259 | 1.7 | 6.1 | 0.00 | 0.00 | 0.00 | 36 | 1011.2 |
| 20260508210059 | 69 | 279 | 1.7 | 7.8 | 0.00 | 0.00 | 0.00 | 37 | 1011.4 |
| 20260508204557 | 69 | 117 | 0.9 | 4.3 | 0.00 | 0.00 | 0.00 | 36 | 1011.4 |
| 20260508203106 | 69 | 175 | 0.9 | 4.3 | 0.00 | 0.00 | 0.00 | 37 | 1011.4 |
| 20260508201602 | 68 | 360 | 1.7 | 4.3 | 0.00 | 0.00 | 0.00 | 39 | 1011.9 |
| 20260508200053 | 67 | 0 | 0.9 | 7.8 | 0.00 | 0.00 | 0.00 | 41 | 1012.2 |
| 20260508194554 | 67 | 84 | 1.7 | 5.2 | 0.00 | 0.00 | 0.00 | 39 | 1012.3 |
| 20260508193102 | 68 | 269 | 0.9 | 5.2 | 0.00 | 0.00 | 0.00 | 39 | 1012.7 |
| 20260508191555 | 68 | 236 | 1.7 | 8.7 | 0.00 | 0.00 | 0.00 | 39 | 1013.0 |
| 20260508190054 | 67 | 200 | 0.9 | 3.5 | 0.00 | 0.00 | 0.00 | 40 | 1013.4 |
| 20260508184554 | 68 | 281 | 1.7 | 7.0 | 0.00 | 0.00 | 0.00 | 40 | 1013.7 |
| 20260508183051 | 68 | 86 | 1.7 | 7.0 | 0.00 | 0.00 | 0.00 | 39 | 1013.8 |
| 20260508181558 | 68 | 0 | 1.7 | 6.1 | 0.00 | 0.00 | 0.00 | 40 | 1013.9 |
| 20260508180057 | 67 | 0 | 0.9 | 7.8 | 0.00 | 0.00 | 0.00 | 43 | 1014.2 |
| 20260508174557 | 66 | 38 | 0.9 | 6.1 | 0.00 | 0.00 | 0.00 | 40 | 1014.5 |
| 20260508173052 | 66 | 71 | 1.7 | 5.2 | 0.00 | 0.00 | 0.00 | 42 | 1014.9 |
| 20260508171552 | 64 | 0 | 0.9 | 7.0 | 0.00 | 0.00 | 0.00 | 42 | 1015.0 |
| 20260508170052 | 65 | 360 | 1.7 | 7.8 | 0.00 | 0.00 | 0.00 | 44 | 1015.1 |
| 20260508164556 | 64 | 360 | 1.7 | 7.0 | 0.00 | 0.00 | 0.00 | 44 | 1015.5 |
| 20260508163054 | 64 | 360 | 1.7 | 5.2 | 0.00 | 0.00 | 0.00 | 41 | 1015.9 |
| 20260508161558 | 63 | 360 | 0.9 | 7.8 | 0.00 | 0.00 | 0.00 | 42 | 1016.1 |
| 20260508160055 | 63 | 20 | 0.9 | 3.5 | 0.00 | 0.00 | 0.00 | 44 | 1016.0 |
| 20260508154611 | 62 | 0 | 1.7 | 5.2 | 0.00 | 0.00 | 0.00 | 43 | 1016.3 |
| 20260508153058 | 64 | 162 | 2.6 | 7.0 | 0.00 | 0.00 | 0.00 | 42 | 1016.1 |
| 20260508151555 | 63 | 84 | 0.9 | 7.0 | 0.00 | 0.00 | 0.00 | 44 | 1016.1 |
| 20260508150104 | 62 | 360 | 2.6 | 8.7 | 0.00 | 0.00 | 0.00 | 44 | 1016.3 |
| 20260508144555 | 62 | 250 | 1.7 | 6.1 | 0.00 | 0.00 | 0.00 | 45 | 1016.2 |
| 20260508143114 | 61 | 224 | 1.7 | 7.0 | 0.00 | 0.00 | 0.00 | 48 | 1016.3 |
| 20260508141602 | 60 | 284 | 0.9 | 5.2 | 0.00 | 0.00 | 0.00 | 49 | 1016.3 |
| 20260508140106 | 58 | 218 | 0.0 | 4.3 | 0.00 | 0.00 | 0.00 | 53 | 1016.2 |
| 20260508134557 | 57 | 0 | 0.9 | 3.5 | 0.00 | 0.00 | 0.00 | 55 | 1016.4 |
| 20260508133105 | 56 | 0 | 1.7 | 6.1 | 0.00 | 0.00 | 0.00 | 52 | 1016.4 |
| 20260508131557 | 55 | 94 | 0.0 | 3.5 | 0.00 | 0.00 | 0.00 | 59 | 1016.6 |
| 20260508130059 | 53 | 43 | 0.0 | 2.6 | 0.00 | 0.00 | 0.00 | 66 | 1016.5 |
| 20260508124554 | 50 | 0 | 0.9 | 3.5 | 0.00 | 0.00 | 0.00 | 77 | 1016.5 |
| 20260508123052 | 46 | 0 | 0.0 | 1.7 | 0.00 | 0.00 | 0.00 | 86 | 1016.5 |
| 20260508121554 | 43 | 0 | 0.0 | 0.9 | 0.00 | 0.00 | 0.00 | 92 | 1016.4 |
| 20260508120104 | 41 | 0 | 0.0 | 1.7 | 0.00 | 0.00 | 0.00 | 95 | 1016.4 |
| 20260508114557 | 38 | 0 | 0.0 | 0.0 | 0.00 | 0.00 | 0.00 | 95 | 1016.4 |
| 20260508113108 | 36 | 0 | 0.0 | 0.9 | 0.00 | 0.00 | 0.00 | 94 | 1016.2 |
| 20260508111604 | 34 | 360 | 0.0 | 0.9 | 0.00 | 0.00 | 0.00 | 94 | 1016.2 |
| 20260508110112 | 34 | 0 | 0.0 | 0.9 | 0.00 | 0.00 | 0.00 | 93 | 1016.2 |
| 20260508104600 | 34 | 0 | 0.0 | 0.0 | 0.00 | 0.00 | 0.00 | 93 | 1016.0 |
| 20260508103055 | 34 | 0 | 0.0 | 0.0 | 0.00 | 0.00 | 0.00 | 93 | 1015.9 |
| 20260508101555 | 34 | 0 | 0.0 | 0.0 | 0.00 | 0.00 | 0.00 | 93 | 1015.8 |
| 20260508100103 | 34 | 0 | 0.0 | 0.0 | 0.00 | 0.00 | 0.00 | 92 | 1015.8 |
| 20260508094602 | 34 | 0 | 0.0 | 0.0 | 0.00 | 0.00 | 0.00 | 92 | 1015.6 |
| 20260508093054 | 34 | 0 | 0.0 | 0.0 | 0.00 | 0.00 | 0.00 | 92 | 1015.7 |
| 20260508091607 | 34 | 0 | 0.0 | 0.0 | 0.00 | 0.00 | 0.00 | 92 | 1015.6 |
| 20260508090056 | 34 | 0 | 0.0 | 0.0 | 0.00 | 0.00 | 0.00 | 92 | 1015.5 |
| 20260508084608 | 35 | 0 | 0.0 | 0.0 | 0.00 | 0.00 | 0.00 | 92 | 1015.5 |
| 20260508083107 | 35 | 0 | 0.0 | 0.0 | 0.00 | 0.00 | 0.00 | 91 | 1015.5 |
| 20260508081554 | 35 | 0 | 0.0 | 0.0 | 0.00 | 0.00 | 0.00 | 91 | 1015.3 |
| 20260508080106 | 35 | 0 | 0.0 | 0.0 | 0.00 | 0.00 | 0.00 | 91 | 1015.3 |
| 20260508074554 | 35 | 0 | 0.0 | 0.0 | 0.00 | 0.00 | 0.00 | 91 | 1015.4 |
| 20260508073103 | 36 | 0 | 0.0 | 0.0 | 0.00 | 0.00 | 0.00 | 90 | 1015.3 |
| 20260508071552 | 36 | 0 | 0.0 | 0.0 | 0.00 | 0.00 | 0.00 | 90 | 1015.3 |
| 20260508070054 | 36 | 0 | 0.0 | 0.0 | 0.00 | 0.00 | 0.00 | 90 | 1015.4 |
| 20260508064558 | 37 | 0 | 0.0 | 0.0 | 0.00 | 0.00 | 0.00 | 89 | 1015.6 |
| 20260508063054 | 37 | 0 | 0.0 | 0.0 | 0.00 | 0.00 | 0.00 | 88 | 1015.6 |
| 20260508061552 | 37 | 0 | 0.0 | 0.0 | 0.00 | 0.00 | 0.00 | 89 | 1015.4 |
| 20260508060058 | 38 | 0 | 0.0 | 0.0 | 0.00 | 0.00 | 0.00 | 88 | 1015.4 |
| 20260508054559 | 38 | 0 | 0.0 | 0.0 | 0.00 | 0.00 | 0.00 | 86 | 1015.5 |
| 20260508053055 | 38 | 0 | 0.0 | 0.0 | 0.00 | 0.00 | 0.00 | 85 | 1015.6 |
| 20260508051553 | 39 | 0 | 0.0 | 0.0 | 0.00 | 0.00 | 0.00 | 86 | 1015.6 |
| 20260508050104 | 39 | 0 | 0.0 | 0.0 | 0.00 | 0.00 | 0.00 | 84 | 1015.6 |
| 20260508044555 | 40 | 0 | 0.0 | 0.0 | 0.00 | 0.00 | 0.00 | 82 | 1015.6 |
| 20260508043101 | 41 | 0 | 0.0 | 0.0 | 0.00 | 0.00 | 0.00 | 81 | 1015.7 |
| 20260508041601 | 41 | 0 | 0.0 | 0.0 | 0.00 | 0.00 | 0.00 | 79 | 1015.5 |
| 20260508034555 | 43 | 0 | 0.0 | 0.0 | 0.00 | 0.00 | 0.00 | 75 | 1015.3 |
| 20260508033054 | 44 | 0 | 0.0 | 0.0 | 0.00 | 0.00 | 0.00 | 74 | 1015.4 |
| 20260508031556 | 44 | 0 | 0.0 | 0.0 | 0.00 | 0.00 | 0.00 | 71 | 1015.4 |
| 20260508030057 | 45 | 0 | 0.0 | 0.0 | 0.00 | 0.00 | 0.00 | 67 | 1015.2 |
| 20260508024558 | 46 | 0 | 0.0 | 0.0 | 0.00 | 0.00 | 0.00 | 65 | 1015.0 |
| 20260508023051 | 47 | 0 | 0.0 | 0.9 | 0.00 | 0.00 | 0.00 | 64 | 1014.9 |
| 20260508021555 | 47 | 0 | 0.0 | 0.0 | 0.00 | 0.00 | 0.00 | 60 | 1014.7 |
| 20260508020056 | 48 | 0 | 0.0 | 0.0 | 0.00 | 0.00 | 0.00 | 59 | 1014.5 |